User: anonymous   Login
Location: Blue Mountain Vista Observatory
(40.6992°N, 75.9422°W)
Time: 21:30:52
(UTC-05:00)
Language:

CZ-4C R/B - Orbit

View from above orbital plane
View from above orbital plane
View from above satellite
View from above satellite

Ground track
Ground track

The orbit data is extracted from the following two-line orbital elements,

1 36416U 10009D   16042.78665192 -.00000027  00000-0  52774-4 0  9996
2 36416  63.4442 141.2244 0338864 357.8170   2.1370 13.69490922297079
Epoch (UTC): 11 February 2016 18:52:46
Eccentricity: 0.0338864
inclination: 63.4442°
perigee height: 751 km
apogee height: 1251 km
right ascension of ascending node: 141.2244°
argument of perigee: 357.8170°
revolutions per day: 13.69490922
mean anomaly at epoch: 2.1370°
orbit number at epoch: 29707

The dashed part of the orbit path shows where the satellite is in the earth's shadow,  

DLR